Regional Weather Roundup
Issued by NWS

Home | Current Version | Previous Version | Graphics & Text | Print | Product List | Glossary On
Versions: 1 2 3 4 5 6 7 8 9 10 11 12 13 14 15 16 17 18 19 20 21 22 23 24 25 26 27 28 29 30 31 32 33 34 35 36 37 38 39 40 41 42 43 44 45 46 47 48 49
000
ASUS45 KBOU 201407
RWRCO

WEATHER ROUNDUP FOR COLORADO
NATIONAL WEATHER SERVICE DENVER/BOULDER CO
800 AM MDT SAT SEP 20 2014

NOTE: "FAIR" INDICATES FEW OR NO CLOUDS BELOW 12000 FEET WITH NO
SIGNIFICANT WEATHER AND/OR OBSTRUCTIONS TO VISIBILITY.

COZ001>005-013-030-031-201500-
...NORTHWEST COLORADO...

CITY           SKY/WX    TMP DP  RH WIND       PRES   REMARKS
CRAIG          SUNNY     43  40  89 CALM      30.33R
HAYDEN         SUNNY     48  39  71 E10       30.33R
MEEKER         NOT AVBL
MOUNT WERNER   NOT AVBL
STEAMBOAT SPGS SUNNY     44  41  90 CALM      30.34S
WALDEN         SUNNY     36  32  87 SE6       30.40R
$$

COZ006>008-011-201500-
...WEST CENTRAL VALLEYS...

CITY           SKY/WX    TMP DP  RH WIND       PRES   REMARKS
GRAND JUNCTION SUNNY     62  44  51 SE7       30.16R
MONTROSE       SUNNY     56  45  66 S5        30.24R
EAGLE          SUNNY     48  43  81 CALM      30.36R
RIFLE          SUNNY     53  44  71 E3        30.25R
DELTA          SUNNY     59  45  58 CALM      30.21R
NUCLA          SUNNY     55  43  62 E3        30.25R
$$

COZ017>023-064>068-201500-
...SOUTHWEST COLORADO...

CITY           SKY/WX    TMP DP  RH WIND       PRES   REMARKS
DURANGO        SUNNY     52  43  71 NE6       30.25R
CORTEZ         SUNNY     50  45  83 CALM      30.19R
PAGOSA SPRINGS SUNNY     51  42  72 CALM      30.32R
TELLURIDE      NOT AVBL
WOLF CREEK PAS MOSUNNY   46  34  61 NE14      30.61R
$$

COZ009-010-012-014-032>034-037-058>063-201500-
...CENTRAL COLORADO...

CITY           SKY/WX    TMP DP  RH WIND       PRES   REMARKS
ASPEN          SUNNY     49  41  74 CALM      30.37R
BUENA VISTA    SUNNY     52  38  60 E5        30.40R
COPPER MTN     SUNNY     52  36  54 S7        30.64S
BERTHOUD PASS  FAIR      37  36  93 NW14      30.67S
COTTONWOOD PAS SUNNY     59  34  38 CALM      30.50R
GUNNISON       SUNNY     41  36  81 CALM      30.41R
KREMMLING      SUNNY     41  36  81 CALM      30.41R
LEADVILLE      SUNNY     42  36  79 NE6       30.50R
MONARCH PASS   SUNNY     46  34  61 E12       30.73R
SALIDA         SUNNY     54  40  57 W6        30.45R
SUNLIGHT       SUNNY     50  39  66 NE3       30.57R
WILKERSON PASS NOT AVBL
$$

COZ069>075-201500-
...SAN LUIS VALLEY/SANGRE DE CRISTO MOUNTAINS...

CITY           SKY/WX    TMP DP  RH WIND       PRES   REMARKS
ALAMOSA        MOSUNNY   52  39  61 CALM      30.34R
LA VETA PASS   SUNNY     55  34  44 NE3       30.50S
SAGUACHE       NOT AVBL
$$

COZ035-036-038>040-201500-
...NORTHERN COLORADO FRONT RANGE...

CITY           SKY/WX    TMP DP  RH WIND       PRES   REMARKS
DENVER INTL AP MOSUNNY   60  48  64 N7        30.23R
DMNS CITY PARK   N/A     61  48  62 N7G14     30.25R
AURORA         MOSUNNY   58  47  67 NE5       30.25R
FRONT RANGE AP MOSUNNY   61  50  67 N8        30.24R
ERIE MUNI ARPT SUNNY     58  51  76 CALM      30.24R
BOULDER MUN AP SUNNY     61  46  59 CALM      30.25R
CENTENNIAL     MOSUNNY   61  47  59 NW8       30.25R
BROOMFIELD     NOT AVBL
FORT COLLINS   SUNNY     57  46  67 NW5       30.25R
LONGMONT       SUNNY     59  50  72 W5        30.26R HAZE
$$

COZ041-046-047-076>085-087-088-201500-
...PIKES PEAK/PALMER DIVIDE AND SOUTHERN FOOTHILLS...

CITY           SKY/WX    TMP DP  RH WIND       PRES   REMARKS
COLO. SPRINGS  SUNNY     68  44  42 NW10      30.24R
A. F. ACADEMY  SUNNY     60  45  58 N5        30.26R
ELLICOTT       NOT AVBL
FALCON         SUNNY     66  42  42 N7        30.28S
FORT CARSON    SUNNY     65  45  47 N5        30.20R
LIMON          SUNNY     63  47  55 NW14      30.19R
MONUMENT HILL  SUNNY     61  43  51 W5        30.29R
TRINIDAD       SUNNY     61  47  59 W10       30.19R
$$

COZ042>045-048>051-090-091-201500-
...NORTHEAST COLORADO...

CITY           SKY/WX    TMP DP  RH WIND       PRES   REMARKS
GREELEY ARPT   SUNNY     59  45  58 N6        30.21R
AKRON          SUNNY     59  52  77 N10       30.17R
BURLINGTON     SUNNY     64  54  69 N13G21    30.10R
WRAY           SUNNY     65  53  64 N9        30.10R
STERLING       SUNNY     61  54  77 CALM      30.14R
HOLYOKE        SUNNY     63  54  72 N8        30.12R
FORT MORGAN    SUNNY     61  48  64 N13G18    30.18R
$$

COZ086-089-092>099-201500-
...SOUTHEAST COLORADO...

CITY           SKY/WX    TMP DP  RH WIND       PRES   REMARKS
PUEBLO         SUNNY     65  45  48 W7        30.13R
LA JUNTA       SUNNY     61  46  57 W8        30.10R
LAMAR          SUNNY     61  59  93 W5        30.05R
SPRINGFIELD      N/A     64  58  80 NW13      30.06R
$$



USA.gov is the U.S. government's official web portal to all federal, state and local government web resources and services.